Weather History for The Dalles, OR

Change the Weather History Date:

Friday, January 4, 2013

  Actual Average Record
Temperature  
Mean Temperature 27 °F -  
Max Temperature 33 °F 38 °F 59 °F (1983)
Min Temperature 21 °F 26 °F 3 °F (1974)
Degree Days  
Heating Degree Days 38    
Moisture  
Dew Point 18 °F    
Average Humidity 71    
Maximum Humidity 80    
Minimum Humidity 56    
Precipitation  
Precipitation 0.00 in - - ()
Sea Level Pressure  
Sea Level Pressure 30.45 in    
Wind  
Wind Speed 3 mph (ESE)    
Max Wind Speed 6 mph    
Max Gust Speed -    
Visibility 10 miles    
Events      
Averages and records for this station are not official NWS values.
T = Trace of Precipitation, MM = Missing Value Source: NWS Daily Summary

Daily Weather History Graph

Daily Weather History Graph

Search for Another Location

Airport:

Trip Planner

Search our weather history database for the weather conditions in past years. The results will help you decide how hot, cold, wet, or windy it might be!

Date:

Astronomy

Jan. 04, 2013 Rise Set
Actual Time 7:45 AM PST 4:34 PM PST
Civil Twilight 7:11 AM PST 5:08 PM PST
Nautical Twilight 6:33 AM PST 5:46 PM PST
Astronomical Twilight 5:57 AM PST 6:22 PM PST
Moon No Moon Rise 11:06 AM PST (1/4)
Length of Visible Light 9h 57m
Length of Day
8h 49m
Waning Gibbous, 54% of the Moon is Illuminated
Jan 4
Waning Gibbous
Jan 4
Last Quarter
Jan 11
New
Jan 18
First Quarter
Jan 26
Full

Hourly Weather History & Observations

Time (PST) Temp. Windchill Dew Point Humidity Pressure Visibility Wind Dir Wind Speed Gust Speed Precip Events Conditions
12:53 AM 27.0 °F - 19.0 °F 72% 30.44 in 10.0 mi Calm Calm - N/A   Mostly Cloudy
1:53 AM 24.1 °F 17.0 °F 18.0 °F 77% 30.45 in 10.0 mi East 5.8 mph - N/A   Clear
2:53 AM 23.0 °F 15.8 °F 17.1 °F 78% 30.46 in 10.0 mi East 5.8 mph - N/A   Clear
3:53 AM 21.9 °F 14.5 °F 16.0 °F 78% 30.47 in 10.0 mi ESE 5.8 mph - N/A   Clear
5:53 AM 24.1 °F 18.2 °F 16.0 °F 71% 30.47 in 10.0 mi ESE 4.6 mph - N/A   Overcast
6:53 AM 24.1 °F - 17.1 °F 75% 30.47 in 10.0 mi Calm Calm - N/A   Overcast
7:53 AM 25.0 °F - 18.0 °F 75% 30.47 in 10.0 mi Calm Calm - N/A   Overcast
8:53 AM 27.0 °F - 19.0 °F 72% 30.48 in 10.0 mi Calm Calm - N/A   Mostly Cloudy
9:53 AM 28.9 °F 25.2 °F 19.0 °F 67% 30.48 in 10.0 mi ENE 3.5 mph - N/A   Clear
10:53 AM 28.9 °F 23.9 °F 18.0 °F 64% 30.48 in 10.0 mi East 4.6 mph - N/A   Partly Cloudy
11:53 AM 30.9 °F 26.2 °F 19.0 °F 61% 30.46 in 10.0 mi ESE 4.6 mph - N/A   Clear
12:53 PM 32.0 °F 27.5 °F 19.9 °F 61% 30.43 in 10.0 mi East 4.6 mph - N/A   Partly Cloudy
1:53 PM 30.9 °F 25.2 °F 19.0 °F 61% 30.42 in 10.0 mi East 5.8 mph - N/A   Clear
2:53 PM 33.1 °F 30.0 °F 19.0 °F 56% 30.41 in 10.0 mi SSE 3.5 mph - N/A   Clear
3:53 PM 30.9 °F 27.5 °F 19.0 °F 61% 30.42 in 10.0 mi SSE 3.5 mph - N/A   Clear
4:53 PM 30.0 °F - 19.0 °F 64% 30.43 in 10.0 mi Calm Calm - N/A   Clear
5:53 PM 27.0 °F 23.0 °F 19.0 °F 72% 30.42 in 10.0 mi ESE 3.5 mph - N/A   Clear
6:53 PM 25.0 °F 20.7 °F 18.0 °F 75% 30.45 in 10.0 mi East 3.5 mph - N/A   Partly Cloudy
7:07 PM 24.8 °F - 19.4 °F 80% 30.43 in 10.0 mi Calm Calm - N/A   Mostly Cloudy
7:53 PM 25.0 °F 19.3 °F 18.0 °F 75% 30.45 in 10.0 mi ESE 4.6 mph - N/A   Overcast
8:53 PM 25.0 °F 18.1 °F 19.0 °F 78% 30.45 in 10.0 mi ESE 5.8 mph - N/A   Overcast
9:53 PM 26.1 °F - 19.0 °F 75% 30.45 in 10.0 mi Calm Calm - N/A   Overcast
10:53 PM 26.1 °F 21.9 °F 19.0 °F 75% 30.46 in 10.0 mi ESE 3.5 mph - N/A   Overcast
11:53 PM 27.0 °F - 19.9 °F 75% 30.45 in 10.0 mi Calm Calm - N/A   Overcast